TimeEST,TemperatureF,Dew PointF,Humidity,Sea Level PressureIn,VisibilityMPH,Wind Direction,Wind SpeedMPH,Gust SpeedMPH,PrecipitationIn,Events,Conditions,WindDirDegrees,DateUTC
12:53 AM,34.0,23.0,64,30.07,10.0,WSW,5.8,-,N/A,,Clear,240,2013-11-15 05:53:00
1:53 AM,34.0,23.0,64,30.07,10.0,WSW,5.8,-,N/A,,Clear,240,2013-11-15 06:53:00
2:53 AM,34.0,23.0,64,30.08,10.0,SW,6.9,-,N/A,,Clear,230,2013-11-15 07:53:00
3:53 AM,35.1,24.1,64,30.06,10.0,SW,6.9,-,N/A,,Clear,230,2013-11-15 08:53:00
4:53 AM,37.0,24.1,59,30.06,10.0,WSW,8.1,-,N/A,,Clear,240,2013-11-15 09:53:00
5:53 AM,37.9,25.0,60,30.07,10.0,SW,11.5,-,N/A,,Clear,230,2013-11-15 10:53:00
6:53 AM,37.0,25.0,62,30.08,10.0,SW,9.2,-,N/A,,Clear,230,2013-11-15 11:53:00
7:53 AM,37.9,25.0,60,30.08,10.0,SW,9.2,-,N/A,,Partly Cloudy,230,2013-11-15 12:53:00
8:53 AM,39.9,26.1,58,30.09,10.0,SW,9.2,-,N/A,,Clear,230,2013-11-15 13:53:00
9:53 AM,42.1,25.0,51,30.09,10.0,WSW,12.7,-,N/A,,Clear,240,2013-11-15 14:53:00
10:53 AM,45.0,26.1,48,30.09,10.0,WSW,11.5,19.6,N/A,,Clear,240,2013-11-15 15:53:00
11:53 AM,45.0,27.0,49,30.08,10.0,SW,11.5,-,N/A,,Clear,230,2013-11-15 16:53:00
12:53 PM,46.9,28.0,48,30.06,10.0,SW,12.7,-,N/A,,Clear,230,2013-11-15 17:53:00
1:53 PM,48.0,28.0,46,30.04,10.0,SW,12.7,-,N/A,,Clear,220,2013-11-15 18:53:00
2:53 PM,48.0,28.0,46,30.04,10.0,SW,11.5,-,N/A,,Scattered Clouds,230,2013-11-15 19:53:00
3:53 PM,48.9,28.0,44,30.04,10.0,SSW,11.5,-,N/A,,Mostly Cloudy,210,2013-11-15 20:53:00
4:53 PM,46.9,28.9,50,30.05,10.0,SW,10.4,-,N/A,,Overcast,220,2013-11-15 21:53:00
5:53 PM,46.0,28.9,51,30.06,10.0,SW,9.2,-,N/A,,Overcast,220,2013-11-15 22:53:00
6:53 PM,44.1,30.0,58,30.06,10.0,SW,5.8,-,N/A,,Overcast,220,2013-11-15 23:53:00
7:53 PM,41.0,30.9,67,30.08,10.0,SSW,4.6,-,N/A,,Mostly Cloudy,200,2013-11-16 00:53:00
8:53 PM,43.0,30.0,60,30.09,10.0,SW,6.9,-,N/A,,Overcast,220,2013-11-16 01:53:00
9:53 PM,37.9,28.9,70,30.09,10.0,SSW,5.8,-,N/A,,Partly Cloudy,210,2013-11-16 02:53:00
10:53 PM,37.0,28.9,73,30.09,10.0,SSW,5.8,-,N/A,,Clear,200,2013-11-16 03:53:00
11:53 PM,39.0,30.0,70,30.10,10.0,SW,8.1,-,N/A,,Scattered Clouds,230,2013-11-16 04:53:00